STARLINK-31975, 59886

Orbit data source: Space-Track

STARLINK-31975, 59886 is a payload satellite owned by SpaceX/Seattle (US) in LEO that was launched on Tue, 28 May 2024 UTC via an FALCON 9 launch vehicle from the Air Force Eastern Test Range (AFETR). Payload-class satellites include a variety of spacecraft equipped with specific instruments for various scientific and technological missions. These include communications satellites like Starlink; space stations such as the ISS; scientific satellites like the Hubble; Earth observation satellites from companies like Planet Labs, Umbra, and HawkEye 360; GPS; miniature CubeSats for education and research; and military/defense satellites.

Loading next visibility...
Identifier
59886, 2024-100B
Orbit
LEO
Country
Flag of USUS
Related business
Manufacturer
SpaceX/Seattle
Mission
Operational spacecraft
Bus & Motor
STARLINK V2M, Unknown motor
Mass
730 kg wet, ~700 kg dry
Launch date (UTC)
2024-05-28 (1 year ago)
Launch vehicle
FALCON 9
Launch site
Air Force Eastern Test Range (AFETR)
Object type
Payload
Rocket body
Debris
Shape & HBR
Unknown
Radar Cross Section
Large (>1 m²)

Expand to show TLE details & history
Last TLE update: 23 hours ago

TLE from 23 hours ago
0 STARLINK-31975
1 59886U 24100B   25260.06992469 -.00001236  00000-0 -35389-4 0  9999
2 59886  43.0029  25.9407 0000792 287.2395  72.8370 15.27584008 74601
Epoch: 2025-09-17T01:40Z
TLE epoch observation values (Epoch: 2025-09-17T01:40:41.493Z)
Latitude
-0°
Longitude
4.51665°
Altitude
482.653 km
Speed
7.626 km/s
True Right ascension
01h 43m 45s
True Declination
0° 00' 00"
Sunlit
Object was in full shadow at epoch
Visualization orbit readout
Latitude
Unknown
Longitude
Unknown
Altitude
Unknown
Speed
Unknown
Apparent Right ascension
Unknown
Apparent Declination
Unknown
Sunlit
N/A
Visualization observer readout
Local Sidereal Time
17:34:30
Azimuth
Unknown
Elevation
Unknown
Doppler factor
Unknown
Orbital elements
Apogee altitude
485.525 km
Perigee altitude
484.438 km
Semi-major axis
6,863.119 km
Eccentricity
0.00008
Inclination
43.0029°
RAAN
25.9407°
Arg. of periapsis
287.2395°
True anomaly
72.84567°
Mean anomaly
72.837°
Eccentric anomaly
72.84134°
Mean motion
3.81734 °/min
Orbital period
94.31 mins
BSTAR
-0.000035389
Loading maneuver chart data...
Computing Atmospheric mass density...
Loading historical data...
Loading historical data...
Loading historical data...
Loading historical data...
Loading historical data...
Loading historical data...
Loading historical data...

Documentation

Showing up to 5 results
|